EN

Hourly Weather Lagowek

Today, 1 August, Sunday

Time Temperature Precipitation Wind Pressure Humidity
00:00 +17°C° 0 mm 3 mps 744 mmHg 70%
01:00 +16°C° 0 mm 2 mps 744 mmHg 73%
02:00 +16°C° 0 mm 2 mps 744 mmHg 75%
03:00 +16°C° 0 mm 2 mps 744 mmHg 78%
04:00 +15°C° 0 mm 2 mps 744 mmHg 80%
05:00 +16°C° 0 mm 2 mps 744 mmHg 76%
06:00 +17°C° 0 mm 2 mps 743 mmHg 73%
07:00 +18°C° 0 mm 2 mps 743 mmHg 70%
08:00 +19°C° 0 mm 2 mps 744 mmHg 66%
09:00 +20°C° 0 mm 2 mps 744 mmHg 63%
10:00 +20°C° 0 mm 2 mps 744 mmHg 59%
11:00 +23°C° 0 mm 2 mps 744 mmHg 54%
12:00 +24°C° 0 mm 2 mps 743 mmHg 49%
13:00 +25°C° 0 mm 2 mps 743 mmHg 45%
14:00 +24°C° 0 mm 2 mps 743 mmHg 47%
15:00 +24°C° 0 mm 3 mps 743 mmHg 49%
16:00 +22°C° 0 mm 3 mps 743 mmHg 51%
17:00 +23°C° 0 mm 2 mps 743 mmHg 54%
18:00 +21°C° 0 mm 2 mps 743 mmHg 57%
19:00 +20°C° 0 mm 2 mps 743 mmHg 60%
20:00 +21°C° 0 mm 1 mps 743 mmHg 62%
21:00 +20°C° 0 mm 1 mps 743 mmHg 64%
22:00 +19°C° 0 mm 1 mps 743 mmHg 66%
23:00 +19°C° 0 mm 1 mps 743 mmHg 68%

Tomorrow, 2 August, Monday

Time Temperature Precipitation Wind Pressure Humidity
00:00 +18°C° 0 mm 1 mps 743 mmHg 69%
01:00 +17°C° 0 mm 2 mps 743 mmHg 71%
02:00 +16°C° 0 mm 2 mps 744 mmHg 75%
03:00 +16°C° 0 mm 2 mps 744 mmHg 79%
04:00 +15°C° 0 mm 2 mps 744 mmHg 83%
05:00 +16°C° 0 mm 3 mps 744 mmHg 80%
06:00 +17°C° 0 mm 3 mps 744 mmHg 78%
07:00 +17°C° 0 mm 4 mps 745 mmHg 76%
08:00 +18°C° 0 mm 4 mps 745 mmHg 68%
09:00 +19°C° 0 mm 4 mps 745 mmHg 61%
10:00 +20°C° 0 mm 5 mps 745 mmHg 54%
11:00 +21°C° 0 mm 5 mps 746 mmHg 51%
12:00 +21°C° 0 mm 5 mps 746 mmHg 48%
13:00 +22°C° 0 mm 5 mps 746 mmHg 44%
14:00 +21°C° 0 mm 5 mps 746 mmHg 45%
15:00 +21°C° 0 mm 4 mps 746 mmHg 45%
16:00 +21°C° 0 mm 4 mps 746 mmHg 45%
17:00 +20°C° 0 mm 4 mps 746 mmHg 48%
18:00 +20°C° 0 mm 3 mps 746 mmHg 50%
19:00 +19°C° 0 mm 3 mps 746 mmHg 53%
20:00 +18°C° 0 mm 3 mps 746 mmHg 56%
21:00 +18°C° 0 mm 3 mps 747 mmHg 59%
22:00 +17°C° 0 mm 2 mps 747 mmHg 62%
23:00 +16°C° 0 mm 2 mps 747 mmHg 65%

Day after tomorrow, 3 August, Tuesday

Time Temperature Precipitation Wind Pressure Humidity
00:00 +16°C° 0 mm 2 mps 747 mmHg 67%
01:00 +15°C° 0 mm 2 mps 748 mmHg 69%
02:00 +15°C° 0 mm 2 mps 748 mmHg 73%
03:00 +14°C° 0 mm 2 mps 748 mmHg 77%
04:00 +13°C° 0 mm 2 mps 748 mmHg 81%
05:00 +14°C° 0 mm 2 mps 748 mmHg 75%
06:00 +16°C° 0 mm 2 mps 748 mmHg 69%
07:00 +17°C° 0 mm 2 mps 748 mmHg 63%
08:00 +19°C° 0 mm 2 mps 748 mmHg 57%
09:00 +20°C° 0 mm 2 mps 748 mmHg 50%
10:00 +23°C° 0 mm 2 mps 748 mmHg 43%
11:00 +24°C° 0 mm 2 mps 748 mmHg 42%
12:00 +25°C° 0 mm 2 mps 748 mmHg 40%
13:00 +25°C° 0 mm 2 mps 747 mmHg 38%
14:00 +24°C° 0.1 mm 2 mps 747 mmHg 45%
15:00 +23°C° 0.1 mm 2 mps 747 mmHg 51%
16:00 +22°C° 0.1 mm 1 mps 747 mmHg 58%
17:00 +21°C° 1.1 mm 1 mps 747 mmHg 67%
18:00 +20°C° 1.1 mm 1 mps 747 mmHg 76%
19:00 +17°C° 1.1 mm 2 mps 747 mmHg 86%
20:00 +17°C° 1.1 mm 2 mps 747 mmHg 87%
21:00 +17°C° 1.1 mm 2 mps 747 mmHg 89%
22:00 +16°C° 1.1 mm 2 mps 747 mmHg 91%
23:00 +16°C° 0 mm 2 mps 747 mmHg 92%

4 August, Wednesday

Time Temperature Precipitation Wind Pressure Humidity
00:00 +16°C° 0 mm 1 mps 747 mmHg 92%
01:00 +15°C° 0 mm 1 mps 747 mmHg 92%
02:00 +15°C° 0 mm 1 mps 747 mmHg 93%
03:00 +15°C° 0 mm 1 mps 747 mmHg 93%
04:00 +14°C° 0 mm 1 mps 746 mmHg 94%
05:00 +15°C° 0 mm 1 mps 747 mmHg 91%
06:00 +16°C° 0 mm 1 mps 747 mmHg 87%
07:00 +18°C° 0 mm 1 mps 747 mmHg 84%
08:00 +18°C° 0 mm 2 mps 747 mmHg 79%
09:00 +19°C° 0 mm 2 mps 747 mmHg 74%
10:00 +20°C° 0 mm 2 mps 747 mmHg 69%
11:00 +21°C° 0.4 mm 3 mps 747 mmHg 66%
12:00 +21°C° 0.4 mm 3 mps 747 mmHg 63%
13:00 +22°C° 0.4 mm 3 mps 747 mmHg 60%
14:00 +22°C° 0.7 mm 4 mps 747 mmHg 62%
15:00 +21°C° 0.7 mm 4 mps 747 mmHg 65%
16:00 +21°C° 0.7 mm 4 mps 747 mmHg 68%
17:00 +20°C° 0.3 mm 3 mps 747 mmHg 71%
18:00 +19°C° 0.3 mm 3 mps 747 mmHg 75%
19:00 +18°C° 0.3 mm 2 mps 747 mmHg 79%
20:00 +17°C° 0 mm 2 mps 747 mmHg 81%
21:00 +16°C° 0 mm 2 mps 747 mmHg 84%
22:00 +16°C° 0 mm 2 mps 747 mmHg 86%
23:00 +15°C° 0 mm 2 mps 747 mmHg 86%

5 August, Thursday

Time Temperature Precipitation Wind Pressure Humidity
00:00 +15°C° 0 mm 2 mps 747 mmHg 86%
01:00 +15°C° 0 mm 2 mps 746 mmHg 86%
02:00 +14°C° 0 mm 2 mps 746 mmHg 88%
03:00 +14°C° 0 mm 2 mps 746 mmHg 89%
04:00 +14°C° 0 mm 2 mps 746 mmHg 91%
05:00 +13°C° 0 mm 3 mps 746 mmHg 87%
06:00 +14°C° 0 mm 3 mps 746 mmHg 84%
07:00 +16°C° 0 mm 3 mps 745 mmHg 81%
08:00 +17°C° 0 mm 3 mps 745 mmHg 73%
09:00 +19°C° 0 mm 3 mps 745 mmHg 65%
10:00 +20°C° 0 mm 3 mps 745 mmHg 57%
11:00 +21°C° 0 mm 4 mps 745 mmHg 56%
12:00 +21°C° 0 mm 4 mps 745 mmHg 54%
13:00 +21°C° 0 mm 5 mps 744 mmHg 53%
14:00 +21°C° 0 mm 4 mps 744 mmHg 53%
15:00 +21°C° 0 mm 4 mps 744 mmHg 54%
16:00 +21°C° 0 mm 4 mps 744 mmHg 54%
17:00 +20°C° 0.1 mm 3 mps 744 mmHg 59%
18:00 +19°C° 0.1 mm 3 mps 743 mmHg 64%
19:00 +19°C° 0.1 mm 2 mps 743 mmHg 70%
20:00 +17°C° 0 mm 2 mps 743 mmHg 74%
21:00 +16°C° 0 mm 2 mps 743 mmHg 79%
22:00 +15°C° 0 mm 2 mps 743 mmHg 83%
23:00 +15°C° 0 mm 2 mps 743 mmHg 85%

6 August, Friday

Time Temperature Precipitation Wind Pressure Humidity
00:00 +14°C° 0 mm 2 mps 743 mmHg 87%
01:00 +14°C° 0 mm 2 mps 743 mmHg 89%
02:00 +13°C° 0 mm 2 mps 743 mmHg 90%
03:00 +13°C° 0 mm 2 mps 743 mmHg 91%
04:00 +13°C° 0 mm 2 mps 743 mmHg 92%
05:00 +13°C° 0 mm 3 mps 743 mmHg 86%
06:00 +14°C° 0 mm 3 mps 743 mmHg 80%
07:00 +15°C° 0 mm 4 mps 742 mmHg 74%
08:00 +18°C° 0 mm 4 mps 743 mmHg 68%
09:00 +19°C° 0 mm 4 mps 743 mmHg 62%
10:00 +21°C° 0 mm 5 mps 743 mmHg 56%
11:00 +22°C° 0.2 mm 5 mps 742 mmHg 55%
12:00 +22°C° 0.2 mm 5 mps 742 mmHg 53%
13:00 +23°C° 0.2 mm 4 mps 742 mmHg 52%
14:00 +22°C° 0.5 mm 4 mps 742 mmHg 57%
15:00 +22°C° 0.5 mm 4 mps 742 mmHg 62%
16:00 +21°C° 0.5 mm 4 mps 742 mmHg 67%
17:00 +20°C° 0.5 mm 3 mps 742 mmHg 71%
18:00 +19°C° 0.5 mm 3 mps 742 mmHg 75%
19:00 +19°C° 0.5 mm 2 mps 742 mmHg 79%
20:00 +18°C° 0.1 mm 2 mps 742 mmHg 82%
21:00 +17°C° 0.1 mm 2 mps 742 mmHg 85%
22:00 +16°C° 0.1 mm 2 mps 742 mmHg 88%
23:00 +16°C° 0 mm 2 mps 742 mmHg 89%
Show more